User: anonymous   Login
Location: Newark
(34.3481°N, 134.0494°E)
Time: 15:36:03
(UTC+00:00)
Language:

Tiros 1 despin weight - Orbit

View from above orbital plane
View from above orbital plane
View from above satellite
View from above satellite

Ground track
Ground track

The orbit data is extracted from the following two-line orbital elements,

1   115U 60002D   20019.13247903 -.00000106  00000-0  14520-4 0  9990
2   115  48.1666 277.0375 0035136 306.4760  53.2917 14.83526936190650
Epoch (UTC): 19 January 2020 03:10:46
Eccentricity: 0.0035136
inclination: 48.1666°
perigee height: 593 km
apogee height: 643 km
right ascension of ascending node: 277.0375°
argument of perigee: 306.4760°
revolutions per day: 14.83526936
mean anomaly at epoch: 53.2917°
orbit number at epoch: 19065

The dashed part of the orbit path shows where the satellite is in the earth's shadow,  

DLR